Regional Weather Roundup
Issued by NWS

Home | Current Version | Previous Version | Text Only | Print | Product List | Glossary Off
Versions: 1 2 3 4 5 6 7 8 9 10 11 12 13 14 15 16 17 18 19 20 21 22 23 24 25 26 27 28 29 30 31 32 33 34 35 36 37 38 39 40 41 42 43 44 45 46 47 48 49 50

277
ASUS45 KCYS 221910
RWRWY

WYOMING REGIONAL WEATHER ROUNDUP
NATIONAL WEATHER SERVICE CHEYENNE WY
100 PM MDT SAT JUL 22 2017

NOTE:  "FAIR" INDICATES FEW OR NO CLOUDS BELOW 12,000 FEET
WITH NO SIGNIFICANT WEATHER AND/OR OBSTRUCTIONS TO VISIBILITY.

WYZ001-222000-
YELLOWSTONE NATIONAL PARK

CITY           SKY/WX    TMP DP  RH WIND       PRES   REMARKS
LK YELLOWSTONE   N/A     69  41  36 VRB5      30.42F
W YELLOWSTONE  NOT AVBL

$$
WYZ002>013-054>058-071-098>099-222000-
NORTHERN WYOMING

CITY           SKY/WX    TMP DP  RH WIND       PRES   REMARKS
JACKSON        SUNNY     75  37  25 S6        30.32S
CODY           FAIR      80  33  18 N6        30.22F
GREYBULL       FAIR      85  34  16 S5        30.12F
WORLAND        FAIR      85  30  13 W6        30.14F
SHERIDAN       FAIR      84  32  15 VRB3      30.16F
BUFFALO        FAIR      82  29  14 VRB7      30.23S
GILLETTE       FAIR      87  25  10 VRB7      30.16S HAZE
HULETT         FAIR      82  32  16 N9        30.16F
NEWCASTLE      FAIR      88  32  13 N8        30.13S

$$
WYZ014>020-022>026-101>103-222000-
CENTRAL WYOMING

CITY           SKY/WX    TMP DP  RH WIND       PRES   REMARKS
BIG PINEY      FAIR      80  31  16 S5        30.35F
PINEDALE       FAIR      79  28  15 N10G18    30.36F
DUBOIS         FAIR      79  25  13 W23G30    30.33S
LANDER         FAIR      84  33  16 S7        30.22F
RIVERTON       FAIR      83  31  15 E10       30.23F
CASPER         FAIR      87  30  13 N9        30.22S
DOUGLAS        FAIR      88  42  20 NW14      30.17F

$$
WYZ021-027>030-104>119-222000-
SOUTHERN WYOMING

CITY           SKY/WX    TMP DP  RH WIND       PRES   REMARKS
EVANSTON       FAIR      83  33  16 N5        30.34F
KEMMERER         N/A     81  27  13 W6        30.37S
FORT BRIDGER   FAIR      83  28  13 W6        30.38S
ROCK SPRINGS   FAIR      83  26  12 MISG      30.33F
RAWLINS        FAIR      83  27  13 N12G22    30.32F
SARATOGA       FAIR      79  37  22 NE7       30.35F
LARAMIE        FAIR      81  31  16 NW16G23   30.32F
CHEYENNE       FAIR      86  46  24 E7        30.24F
TORRINGTON     FAIR      89  47  23 VRB3      30.10F
PINE BLUFFS    FAIR      84  46  26 SE13      30.18F

$$




USA.gov is the U.S. government's official web portal to all federal, state and local government web resources and services.